{"data":{"norad_id":60592,"epoch":"2026-05-25T04:16:17.954976Z","epoch_age_seconds":53463,"freshness":"FRESH","line1":"1 60592U 24150K   26145.17798559  .00000464  00000+0  24876-4 0  9997","line2":"2 60592  53.1605 310.9273 0001133  92.5968 267.5164 15.34390604 99763","mean_motion":15.34390604,"eccentricity":0.0001133,"inclination_deg":53.1605,"raan_deg":310.9273,"arg_perigee_deg":92.5968,"mean_anomaly_deg":267.5164,"bstar":2.4876e-5,"rev_number":9976,"period_min":93.848332767815,"perigee_km":461.95609687839,"apogee_km":463.50623760508,"semimajor_km":6840.8681672417,"source":"CELESTRAK","updated_at":"2026-05-25T13:38:19.280034Z"}}